Wind_Speed
23 24 22 15 17 18 16 11 2 8 11 7 5 4 6 10 9 4 4 6 6 7 5 4 3 11 7 2 4 5 3 3 4 7 2 5 7 7 9 5 6 5 6 5
20 24 26 22 21 23 20 8 6 6 15 5 10 10 9 3 5 9 6 4 10 9 4 4 3 6 7 5 2 3 1 1 3 3 2 2 6 2 7 5 2 6 5 3
28 23 25 26 24 23 20 7 1 5 10 11 7 12 13 8 13 5 8 5 6 7 4 4 4 6 7 22 1 5 6 3 4 2 3 1 2 6 6 2 3 6 5 3
24 28 24 26 27 26 23 10 5 4 3 6 10 5 5 12 12 10 14 4 17 15 11 10 5 7 6 9 9 2 4 4 5 6 8 6 3 8 7 5 5 5 3 12
28 26 28 27 28 26 26 12 5 5 3 3 3 9 18 13 11 4 6 8 4 4 12 17 16 11 1 3 9 12 4 3 5 6 14 13 7 14 13 12 13 14 15 22
33 31 29 29 29 35 14 19 12 6 3 4 4 4 3 3 3 4 7 6 8 13 16 20 19 20 23 16 11 5 2 4 3 10 5 7 9 16 14 11 14 16 13 18
37 35 32 30 31 38 27 23 14 7 3 5 7 4 3 5 7 6 14 14 6 2 21 28 21 16 17 14 12 12 5 2 3 4 4 8 1 3 11 15 17 16 14 11
38 38 36 33 34 36 36 26 21 12 3 11 12 12 11 12 11 12 16 30 26 24 15 5 5 4 5 13 16 16 13 5 3 5 5 6 10 4 6 7 8 15 18 14
38 40 41 37 35 36 38 36 29 20 5 8 16 10 13 6 4 4 12 22 21 11 3 5 6 8 7 6 4 18 16 15 8 5 8 6 0 4 3 4 12 8 12 14
43 39 38 41 39 38 40 39 35 25 13 15 13 6 8 9 4 4 5 6 6 12 4 7 7 6 6 6 7 6 5 7 14 13 10 7 9 4 9 9 5 7 12 9
46 42 39 38 40 40 42 42 39 38 18 18 20 23 14 10 9 5 2 4 3 4 6 7 6 5 5 4 3 7 11 7 6 8 9 15 10 5 13 8 7 7 6 10
38 43 39 39 40 40 43 35 41 38 26 9 26 31 30 32 27 16 10 6 5 2 3 3 5 4 4 5 4 1 6 7 4 6 5 3 8 14 21 15 9 6 9 12
34 42 42 38 40 39 43 42 29 40 26 20 24 27 30 28 33 33 12 10 11 5 6 4 3 5 3 6 5 4 5 5 4 0 7 12 21 26 21 12 15 13 14 11
31 34 41 40 37 36 37 43 39 38 13 6 9 17 31 34 33 32 33 39 29 22 16 8 4 4 7 3 2 6 3 10 6 6 7 8 13 19 23 14 13 11 12 15
29 29 33 39 37 36 36 46 44 43 27 4 5 15 24 21 22 25 29 37 29 23 7 5 8 6 9 3 1 4 6 7 5 6 9 6 6 11 16 12 13 8 8 9
26 25 32 29 31 35 34 5 32 38 25 3 2 8 10 9 19 28 29 28 28 25 12 7 11 27 6 4 3 5 22 19 25 7 10 14 18 13 13 15 12 11 10 10
20 24 26 25 33 35 16 9 15 28 19 3 3 3 5 9 15 21 18 22 16 15 7 7 13 7 10 2 3 3 8 13 12 17 9 7 9 5 4 10 10 13 14 13
25 22 36 38 34 28 20 12 17 28 11 4 2 4 3 3 6 8 16 12 18 10 6 4 3 4 5 4 5 10 6 4 4 7 7 12 8 4 2 3 3 8 10 13
37 38 33 29 19 8 13 16 17 24 7 4 4 2 3 5 3 6 7 8 2 5 2 2 2 2 3 6 4 5 2 1 7 13 13 11 12 11 9 6 4 6 10 15
36 30 10 6 10 11 10 4 6 8 8 6 3 4 3 2 3 2 2 3 2 3 3 2 2 3 13 11 9 14 13 11 10 11 9 10 15 12 11 14 15 13 13 14
13 5 6 17 17 8 5 4 3 3 3 7 7 14 6 9 4 2 1 1 1 1 0 1 2 3 2 3 3 5 8 11 16 17 20 20 15 13 9 7 9 14 17 17
6 12 20 19 6 2 3 4 4 5 4 4 3 5 9 4 6 1 1 2 2 1 1 1 2 2 2 3 7 11 13 13 14 13 9 5 7 10 8 9 10 9 12 12
12 5 7 6 5 4 6 6 3 2 3 6 6 3 6 5 3 2 1 2 1 0 2 2 2 4 4 8 9 8 8 7 5 3 1 2 3 3 3 4 7 5 3 8
4 5 2 3 3 3 3 2 2 2 3 8 10 3 1 2 3 2 3 1 2 2 2 3 2 2 2 3 5 5 3 4 3 4 1 0 0 2 3 3 5 6 12 17
4 4 4 3 1 1 1 4 4 5 7 11 5 4 2 1 4 2 3 3 2 2 3 2 1 2 1 2 4 6 5 5 8 9 8 9 10 10 11 10 8 8 11 11
3 3 2 1 1 2 2 3 3 2 11 5 2 2 2 1 4 3 3 6 5 3 3 4 3 3 2 1 3 6 9 12 15 14 13 12 10 9 9 10 10 11 10 10
3 1 4 5 0 2 1 1 1 3 4 1 1 2 2 2 1 1 3 4 3 3 4 5 8 8 5 5 8 9 5 7 8 7 5 4 6 7 7 8 9 8 8 8
Wind_Direction
239 239 234 222 200 211 205 191 183 203 201 196 225 248 228 237 262 227 268 284 254 274 314 290 292 253 236 94 125 298 5 191 230 237 317 338 267 237 172 200 192 240 275 228
239 227 219 213 205 205 191 182 205 194 188 213 242 260 248 259 275 231 195 245 235 233 299 313 346 327 358 17 111 159 283 29 267 245 320 214 271 268 183 148 128 183 170 273
237 228 227 212 207 205 198 175 165 208 207 226 229 253 275 269 216 233 259 256 256 274 232 214 298 332 335 339 343 143 122 153 187 286 13 13 237 264 230 190 190 157 228 265
232 234 226 218 208 201 190 193 220 166 186 242 236 244 328 277 256 265 208 261 246 255 266 268 251 256 281 263 332 56 106 210 196 220 224 286 314 290 241 236 219 226 257 232
235 232 225 217 216 204 184 166 163 172 178 175 103 226 243 257 270 249 301 242 263 301 255 256 268 279 124 302 352 2 322 257 218 263 255 233 229 241 246 250 253 243 250 261
230 229 225 218 209 197 187 192 177 177 201 183 222 215 255 262 52 345 240 344 275 255 258 266 280 273 267 269 274 276 254 290 210 264 220 230 244 235 222 233 234 224 227 249
225 224 225 218 211 212 204 199 190 178 232 201 212 239 233 238 264 268 279 303 309 354 329 316 279 269 255 247 238 217 234 231 294 305 159 218 274 338 229 218 236 230 244 244
225 222 222 220 211 214 214 210 198 191 226 221 237 242 258 270 268 266 272 282 269 276 309 264 233 229 238 233 221 209 206 201 251 271 264 305 292 207 185 180 247 231 240 246
223 222 220 221 215 213 216 214 217 209 150 224 223 221 226 235 245 284 267 283 279 236 232 255 228 210 203 207 205 212 203 212 198 247 278 280 165 272 166 143 271 243 211 235
218 219 217 217 216 212 215 216 215 206 224 231 195 196 212 213 206 263 298 314 319 221 206 249 266 235 204 219 199 158 189 202 210 217 241 255 235 195 165 183 238 246 228 237
219 214 215 214 214 213 212 218 214 207 222 235 222 224 214 206 198 212 225 333 208 254 218 240 238 234 221 244 198 191 191 193 204 215 225 257 167 152 207 224 201 207 209 235
217 213 212 213 212 212 212 210 218 213 215 247 235 238 244 241 239 240 225 238 271 278 326 357 334 228 177 179 213 179 221 220 202 214 222 301 313 289 235 241 237 215 237 255
210 209 209 211 215 218 213 207 209 205 217 239 240 234 245 243 241 239 231 237 227 218 216 293 314 307 296 187 217 178 225 166 186 165 251 267 282 262 254 237 249 251 245 242
206 210 207 210 212 212 213 208 210 204 201 224 250 252 250 253 248 237 235 242 250 259 259 217 266 271 259 263 228 202 177 154 180 246 277 295 272 254 248 238 248 242 233 236
199 203 209 211 209 216 217 217 216 214 194 174 245 255 250 254 246 238 237 241 235 237 257 249 244 239 254 240 250 214 190 174 186 226 211 183 271 310 261 232 241 222 218 206
197 206 205 196 208 210 207 125 181 186 183 62 277 265 259 257 243 233 234 233 221 218 224 221 228 241 246 233 218 233 208 215 222 241 252 237 246 285 230 227 230 204 177 162
197 200 178 183 194 185 165 148 173 179 171 187 278 263 205 278 293 219 207 210 209 211 226 225 234 238 201 244 218 264 207 236 246 252 274 282 285 275 333 249 243 221 206 195
162 171 154 151 137 111 103 101 140 160 153 178 259 267 282 347 188 175 185 186 209 222 232 243 203 170 211 235 230 223 254 241 278 289 283 265 270 315 341 322 298 241 234 229
122 127 127 126 117 83 100 90 133 166 172 200 216 264 288 339 243 160 148 165 168 198 236 247 171 213 200 223 201 236 201 241 290 295 279 275 273 272 274 263 301 293 248 234
127 119 100 93 125 147 157 111 139 188 205 235 246 208 249 265 254 59 121 171 163 206 195 209 220 248 263 268 268 281 289 297 305 301 297 281 259 252 258 260 268 271 267 252
113 73 66 131 137 125 165 139 184 193 232 216 233 220 226 249 264 129 177 139 70 286 351 319 308 262 293 348 332 316 319 313 305 298 286 275 250 262 259 263 261 259 251 244
114 127 130 134 187 175 137 189 178 208 234 198 208 192 191 173 223 134 168 140 176 210 185 207 256 251 242 304 341 339 333 324 317 318 307 261 240 251 249 271 287 272 244 238
151 159 148 186 176 170 188 198 173 213 204 192 179 174 167 154 166 92 136 67 352 241 8 283 252 321 359 353 341 346 345 344 320 321 114 170 210 218 269 301 286 261 205 198
189 152 170 188 190 236 199 201 194 223 234 192 177 118 163 82 63 72 88 95 200 164 209 239 261 288 248 322 350 3 29 21 17 53 17 183 96 89 127 145 125 158 170 162
211 162 202 202 120 145 161 245 262 230 200 166 132 104 127 103 109 114 127 146 163 246 235 238 236 159 103 23 42 57 80 102 90 81 87 96 100 105 106 104 116 142 150 150
183 121 125 163 112 282 232 204 198 183 167 166 164 128 75 76 127 145 193 143 206 241 217 229 195 187 178 189 163 145 128 100 88 89 90 93 94 96 105 116 122 122 123 137
148 139 125 149 168 214 208 165 24 133 165 143 115 100 170 105 54 196 176 205 221 218 232 229 198 185 179 191 195 177 154 105 90 71 63 88 104 110 118 123 119 125 130 137
Height
1428 1432 1435 1439 1443 1449 1452 1454 1458 1456 1459 1466 1460 1454 1452 1454 1451 1452 1454 1452 1453 1449 1444 1436 1429 1425 1423 1422 1422 1423 1429 1428 1434 1431 1427 1429 1424 1422 1435 1433 1435 1432 1420 1409
1423 1425 1430 1434 1439 1443 1446 1449 1452 1453 1455 1458 1457 1455 1452 1453 1451 1449 1453 1453 1447 1445 1448 1443 1435 1429 1427 1422 1420 1422 1428 1433 1430 1427 1432 1430 1430 1425 1433 1434 1438 1428 1430 1422
1416 1421 1424 1429 1434 1438 1444 1448 1451 1451 1452 1451 1453 1452 1448 1448 1448 1452 1450 1448 1450 1451 1446 1447 1439 1441 1431 1430 1422 1425 1426 1437 1436 1432 1428 1431 1431 1429 1426 1427 1425 1425 1425 1421
1410 1415 1420 1424 1427 1432 1439 1443 1443 1444 1449 1450 1449 1452 1449 1445 1447 1446 1445 1448 1444 1443 1443 1440 1441 1440 1436 1437 1433 1425 1427 1431 1436 1434 1437 1437 1432 1429 1424 1429 1429 1424 1419 1416
1403 1408 1413 1418 1424 1428 1431 1436 1440 1443 1446 1446 1448 1447 1444 1448 1447 1451 1444 1440 1439 1443 1443 1438 1433 1437 1439 1441 1434 1439 1433 1427 1431 1427 1422 1425 1429 1427 1426 1423 1423 1418 1416 1406
1395 1401 1406 1412 1418 1420 1422 1429 1433 1437 1441 1442 1445 1444 1444 1441 1448 1445 1443 1444 1442 1439 1437 1440 1436 1434 1434 1434 1433 1436 1442 1434 1430 1415 1413 1420 1421 1414 1413 1411 1409 1408 1411 1395
1386 1392 1398 1405 1410 1413 1419 1423 1430 1436 1437 1438 1437 1440 1442 1443 1445 1446 1440 1444 1444 1439 1439 1437 1433 1431 1429 1427 1427 1431 1435 1434 1433 1417 1417 1411 1396 1399 1399 1401 1401 1401 1396 1395
1377 1384 1390 1397 1404 1409 1414 1419 1425 1429 1432 1432 1435 1438 1439 1441 1442 1441 1440 1431 1435 1438 1439 1432 1425 1424 1421 1415 1417 1422 1427 1430 1430 1423 1413 1403 1393 1396 1397 1400 1393 1391 1389 1387
1367 1375 1382 1389 1396 1403 1409 1414 1420 1425 1428 1425 1429 1432 1434 1436 1437 1436 1430 1428 1428 1431 1434 1430 1415 1411 1405 1405 1403 1404 1412 1416 1427 1429 1422 1406 1389 1389 1390 1394 1392 1384 1382 1379
1357 1365 1373 1381 1388 1396 1402 1407 1414 1422 1422 1421 1424 1426 1427 1430 1431 1431 1430 1427 1425 1424 1425 1422 1420 1404 1396 1394 1391 1402 1410 1413 1413 1411 1412 1401 1388 1387 1390 1396 1385 1378 1379 1378
1347 1356 1365 1373 1381 1389 1395 1398 1407 1413 1415 1416 1416 1419 1421 1423 1425 1427 1427 1428 1423 1422 1418 1414 1405 1402 1397 1393 1385 1387 1395 1401 1401 1403 1404 1398 1382 1386 1384 1374 1375 1375 1374 1375
1339 1348 1357 1365 1373 1381 1389 1394 1399 1408 1412 1409 1410 1412 1413 1415 1419 1422 1423 1423 1422 1423 1420 1415 1404 1394 1392 1389 1385 1388 1389 1386 1386 1387 1379 1378 1381 1378 1373 1374 1374 1371 1370 1373
1333 1341 1350 1358 1366 1373 1380 1386 1392 1402 1405 1406 1406 1402 1404 1407 1409 1415 1419 1417 1419 1420 1421 1423 1413 1405 1390 1384 1383 1382 1385 1385 1389 1393 1379 1377 1373 1373 1374 1371 1370 1368 1368 1371
1328 1335 1344 1352 1360 1367 1374 1376 1382 1392 1398 1399 1393 1394 1395 1397 1402 1404 1406 1409 1414 1417 1417 1416 1413 1408 1397 1381 1372 1373 1377 1381 1384 1382 1378 1371 1367 1368 1369 1367 1367 1366 1365 1366
1324 1331 1338 1346 1354 1362 1369 1371 1375 1382 1390 1390 1390 1388 1387 1389 1392 1394 1397 1400 1407 1410 1410 1409 1405 1399 1396 1383 1377 1373 1372 1372 1373 1368 1366 1367 1366 1366 1366 1364 1366 1363 1362 1363
1322 1327 1331 1342 1350 1354 1362 1368 1370 1374 1379 1385 1390 1381 1378 1380 1383 1385 1387 1390 1398 1401 1402 1398 1393 1389 1390 1374 1368 1362 1359 1360 1360 1360 1362 1363 1364 1363 1361 1362 1362 1362 1363 1365
1321 1326 1333 1341 1344 1351 1357 1362 1364 1374 1383 1386 1386 1377 1373 1374 1372 1376 1381 1384 1386 1389 1387 1381 1381 1378 1378 1372 1366 1357 1357 1358 1358 1358 1360 1360 1361 1361 1361 1362 1362 1363 1364 1366
1316 1326 1330 1336 1346 1352 1360 1363 1365 1373 1380 1384 1383 1373 1368 1368 1366 1368 1372 1377 1380 1379 1377 1372 1368 1371 1372 1364 1355 1356 1357 1356 1355 1356 1358 1358 1360 1360 1360 1361 1362 1363 1365 1367
1325 1332 1338 1345 1352 1357 1363 1366 1369 1374 1380 1379 1376 1372 1367 1364 1359 1363 1366 1368 1371 1372 1370 1367 1366 1363 1357 1350 1351 1354 1353 1352 1353 1354 1355 1356 1357 1358 1360 1360 1361 1362 1362 1364
1334 1341 1346 1353 1358 1361 1365 1370 1373 1376 1375 1374 1370 1367 1365 1365 1361 1359 1363 1365 1365 1364 1366 1366 1364 1357 1346 1346 1348 1350 1350 1350 1349 1349 1350 1351 1352 1353 1355 1356 1358 1359 1360 1362
1341 1345 1351 1356 1361 1364 1367 1370 1373 1372 1369 1365 1360 1358 1359 1361 1362 1358 1361 1361 1362 1361 1361 1359 1358 1352 1346 1345 1347 1349 1348 1346 1345 1344 1343 1346 1348 1350 1350 1351 1351 1352 1353 1356
1345 1347 1356 1360 1362 1363 1365 1365 1366 1364 1357 1354 1353 1353 1356 1355 1356 1357 1360 1360 1363 1359 1365 1360 1357 1350 1349 1349 1346 1344 1343 1342 1341 1340 1340 1341 1343 1345 1346 1346 1347 1348 1349 1352
1348 1350 1354 1357 1357 1359 1359 1360 1351 1354 1350 1349 1350 1350 1351 1355 1356 1357 1358 1361 1362 1362 1358 1356 1352 1348 1347 1346 1346 1345 1344 1343 1344 1344 1342 1341 1342 1343 1342 1342 1344 1346 1348 1351
1345 1346 1349 1351 1353 1349 1346 1345 1346 1347 1346 1347 1349 1349 1348 1351 1353 1357 1362 1364 1362 1362 1363 1358 1353 1351 1350 1350 1348 1348 1347 1347 1346 1341 1343 1342 1342 1341 1342 1344 1346 1347 1347 1351
1344 1345 1346 1344 1344 1345 1344 1345 1346 1345 1344 1346 1348 1349 1351 1355 1359 1360 1364 1364 1362 1358 1356 1351 1349 1350 1349 1348 1348 1348 1349 1349 1346 1345 1345 1344 1344 1344 1346 1349 1349 1350 1351 1351
1341 1342 1345 1345 1346 1345 1345 1345 1345 1344 1343 1345 1346 1348 1351 1353 1354 1357 1359 1358 1361 1353 1350 1347 1347 1349 1349 1350 1351 1353 1353 1350 1346 1347 1348 1349 1349 1349 1350 1351 1352 1352 1354 1356
1339 1341 1342 1344 1344 1345 1344 1344 1342 1343 1344 1344 1344 1349 1347 1352 1353 1353 1353 1354 1346 1344 1345 1346 1346 1347 1349 1350 1352 1354 1352 1348 1348 1349 1350 1350 1351 1352 1353 1353 1354 1355 1356 1358